Home   Weather   Giessen   Past weeks

Flag for Germany Past Weather in Giessen, Hesse, Germany — Yesterday and Last 2 Weeks

Now
23 °F

Clear.


Feels Like: 15 °F
Forecast: 19 / 33 °F
Wind: 7 mph from East

Location: Frankfurt-M-Flughafen Airport

Current Time: Dec 4, 2016 at 4:57:20 am

Latest Report: Dec 4, 2016 at 4:20 am


Visibility: 10 mi

Pressure: 30.33 "Hg

Humidity: 86%

Dew Point: 19 °F

Location of GiessenLocation

Past Weather in Giessen — Graph

°F

Giessen Temperature Yesterday

Maximum temperature yesterday: 39 °F (at 1:20 pm)
Minimum temperature yesterday: 25 °F (at 4:50 am)
Average temperature yesterday: 32 °F

High & Low Weather Summary for the Past Weeks

 TemperatureHumidityPressure
High59 °F (Nov 20, 3:20 pm)100% (Nov 22, 12:50 am)30.57 "Hg (Nov 22, 12:50 am)
Low18 °F (Nov 30, 8:20 am)47% (Nov 20, 12:50 pm)29.53 "Hg (Nov 20, 12:20 pm)
Average41 °F78%30.10 "Hg
* Reported Nov 19 3:20 am — Dec 4 3:50 am, Giessen, Weather by CustomWeather, © 2016

Note: Actual official high and low records may vary slightly from our data, if they occured in-between our weather recording intervals... More about our weather records

Advertising

Giessen Weather History for the Previous 24 Hours

Scroll right to see more
 ConditionsComfort  
Time TempWeatherWind HumidityBarometerVisibility
3:50 am
Sun, Dec 4
23 °FClear.7 mph93%30.33 "Hg10 mi
3:20 am25 °FClear.6 mph93%30.33 "Hg10 mi
2:50 am25 °FClear.7 mph93%30.33 "Hg10 mi
2:20 am25 °FClear.6 mph93%30.33 "Hg10 mi
1:50 am27 °FClear.6 mph86%30.33 "Hg10 mi
1:20 am28 °FPassing clouds.5 mph80%30.33 "HgN/A
12:50 am27 °FClear.3 mph86%30.33 "Hg10 mi
12:20 am27 °FClear.6 mph86%30.33 "Hg10 mi
11:50 pm
Sat, Dec 3
27 °FClear.7 mph86%30.33 "Hg10 mi
11:20 pm28 °FClear.6 mph86%30.33 "Hg10 mi
10:50 pm30 °FClear.6 mph80%30.30 "Hg10 mi
10:20 pm32 °FClear.7 mph80%30.30 "Hg10 mi
9:50 pm32 °FPassing clouds.6 mph80%30.30 "HgN/A
9:20 pm30 °FClear.5 mph86%30.30 "Hg10 mi
8:50 pm32 °FPassing clouds.3 mph87%30.30 "HgN/A
8:20 pm30 °FClear.6 mph86%30.30 "Hg10 mi
7:50 pm32 °FClear.6 mph87%30.30 "Hg10 mi
7:20 pm34 °FClear.10 mph81%30.30 "Hg10 mi
6:50 pm32 °FClear.7 mph87%30.30 "Hg10 mi
6:20 pm36 °FClear.12 mph75%30.30 "Hg10 mi
5:50 pm36 °FClear.12 mph70%30.27 "Hg10 mi
5:20 pm36 °FClear.9 mph70%30.27 "Hg10 mi
4:50 pm36 °FClear.10 mph70%30.27 "Hg10 mi
4:20 pm37 °FSunny.9 mph65%30.27 "Hg10 mi
3:50 pm39 °FSunny.10 mph61%30.27 "Hg10 mi
3:20 pm39 °FSunny.8 mph61%30.27 "Hg10 mi
2:50 pm39 °FSunny.9 mph61%30.27 "Hg10 mi
2:20 pm39 °FSunny.10 mph61%30.27 "Hg10 mi
1:50 pm39 °FSunny.8 mph61%30.27 "Hg10 mi
1:20 pm39 °FPassing clouds.8 mph65%30.27 "HgN/A
12:50 pm37 °FPassing clouds.7 mph70%30.27 "HgN/A
12:20 pm37 °FSunny.9 mph70%30.27 "Hg10 mi
11:50 am37 °FPassing clouds.8 mph70%30.27 "HgN/A
11:20 am36 °FSunny.9 mph75%30.30 "Hg10 mi
10:50 am34 °FPassing clouds.7 mph81%30.30 "HgN/A
10:20 am34 °FPassing clouds.7 mph81%30.30 "HgN/A
9:50 am30 °FSunny.6 mph86%30.30 "Hg10 mi
9:20 am28 °FSunny.5 mph86%30.27 "Hg10 mi
8:50 am27 °FSunny.7 mph93%30.27 "Hg10 mi
8:20 am25 °FFog.7 mph93%30.27 "HgN/A
7:50 am25 °FClear.6 mph93%30.27 "Hg10 mi
7:20 am25 °FFog.5 mph93%30.24 "HgN/A
6:50 am27 °FFog.6 mph86%30.24 "HgN/A
6:20 am27 °FClear.3 mph93%30.24 "Hg10 mi
5:50 am27 °FFog.3 mph93%30.24 "HgN/A
5:20 am27 °FFog.3 mph93%30.24 "HgN/A
4:50 am25 °FClear.6 mph93%30.24 "Hg10 mi
4:20 am27 °FFog.8 mph93%30.24 "HgN/A
Weather by CustomWeather, © 2016

See weather overviewHow to use our weather pages